[[{"header":{"parameterUnit":"m.s-1","parameterCategory":1,"la1":30.2992,"la2":30.254,"lo1":-89.0895,"lo2":-89.0443,"dy":0.0025,"dx":0.0025,"nx":19,"ny":19,"refTime":"2026-04-17T03:00:00:Z","depth":0,"parameterNumber":2,"parameterNumberName":"U-component_of_WINDS"},"data":[0,0,0,-0.5416,-0.5415,-0.5357,-0.5356,-0.5294,-0.5294,0,0,0,0,0,0,0,0,0,0,0,-0.5442,-0.5442,-0.5416,-0.5415,-0.5357,-0.5356,-0.5294,-0.5294,0,0,0,0,0,0,0,0,0,0,0,-0.5442,-0.5442,-0.5442,-0.5414,-0.5357,-0.5356,-0.5295,-0.5333,0,0,0,0,0,0,0,0,0,0,-0.5387,-0.5422,-0.5442,-0.5442,-0.5414,-0.5357,-0.5356,-0.5335,-0.5331,-0.5326,0,-0.5327,0,-0.531,-0.5291,-0.5291,0,0,0,-0.5407,-0.5426,-0.5402,-0.5442,-0.5414,-0.5357,-0.5381,-0.5333,-0.5328,-0.5321,-0.5326,-0.5323,-0.5309,-0.529,-0.529,-0.5296,-0.5296,0,0,-0.541,-0.5437,-0.5405,-0.5399,-0.5411,-0.5383,-0.5379,-0.533,-0.5336,-0.5326,-0.5322,-0.5308,-0.529,-0.529,-0.5295,-0.5296,0,0,0,-0.5424,-0.5439,-0.5416,-0.5402,-0.5391,-0.5381,-0.5377,-0.5338,-0.5328,-0.5321,-0.5307,-0.529,-0.5289,-0.5295,-0.5295,-0.5342,0,0,0,-0.5426,-0.5448,-0.5418,-0.5434,-0.5392,-0.5364,-0.5387,-0.5332,-0.5325,-0.5307,-0.529,-0.5289,-0.5294,-0.5295,-0.5339,-0.5359,0,0,0,-0.5443,-0.5449,-0.5445,-0.5435,-0.5412,-0.5364,-0.5352,-0.533,-0.5317,-0.5291,-0.5289,-0.5294,-0.5295,-0.5337,-0.5355,-0.5368,0,0,0,-0.5468,-0.5486,-0.5446,-0.546,-0.5412,-0.5394,-0.5352,-0.5336,-0.5319,-0.529,-0.5294,-0.5295,-0.5337,-0.5353,-0.5366,-0.5384,-0.5394,0,0,-0.5505,-0.5491,-0.5497,-0.546,-0.5456,-0.5401,-0.5403,-0.536,-0.5332,-0.5309,-0.5309,-0.534,-0.5355,-0.5368,-0.5441,-0.5449,0,0,0,-0.5518,-0.5523,-0.5516,-0.5502,-0.5471,-0.5446,-0.5401,-0.5385,-0.5364,-0.5327,-0.5347,-0.5355,-0.5362,-0.5369,-0.5376,-0.5379,-0.53,-0.53,-0.53,-0.5609,-0.5573,-0.5581,-0.5538,-0.5525,-0.5478,-0.5463,-0.5433,-0.54,-0.5406,-0.5399,-0.5447,-0.5457,-0.5462,-0.5466,-0.5405,-0.5405,-0.5405,-0.5405,-0.566,-0.566,-0.5617,-0.5609,-0.557,-0.5562,-0.5517,-0.5494,-0.5479,-0.545,-0.5453,-0.5424,-0.5472,-0.5473,-0.5408,-0.5408,-0.5407,-0.5407,-0.5407,-0.5715,-0.5709,-0.5691,-0.5666,-0.5651,-0.5606,-0.5595,-0.5559,-0.5526,-0.5529,-0.5517,-0.5517,-0.5511,-0.5526,-0.5526,-0.5527,-0.5527,-0.5527,-0.5527,-0.578,-0.5757,-0.5753,-0.5722,-0.5708,-0.5685,-0.5638,-0.5622,-0.5596,-0.5571,-0.557,-0.5536,-0.5484,-0.5471,-0.5529,-0.5529,-0.5529,-0.5528,-0.5528,-0.5845,-0.5824,-0.5818,-0.5804,-0.5764,-0.5751,-0.5706,-0.5677,-0.5659,-0.5654,-0.5619,-0.5586,-0.5569,-0.5563,-0.5552,-0.5627,-0.5627,-0.5627,-0.5627,-0.5891,-0.588,-0.5865,-0.5845,-0.5821,-0.578,-0.5771,-0.5734,-0.5692,-0.5678,-0.5662,-0.5645,-0.5641,-0.5626,-0.5618,-0.5608,-0.5696,-0.5696,-0.5696,-0.5929,-0.5913,-0.5914,-0.5875,-0.5841,-0.5812,-0.5803,-0.5779,-0.5727,-0.5698,-0.5667,-0.5664,-0.5635,-0.5628,-0.5599,-0.5588,-0.5568,0,0]},{"header":{"parameterUnit":"m.s-1","parameterCategory":1,"la1":30.2992,"la2":30.254,"lo1":-89.0895,"lo2":-89.0443,"dy":0.0025,"dx":0.0025,"nx":19,"ny":19,"refTime":"2026-04-17T03:00:00:Z","depth":0,"parameterNumber":3,"parameterNumberName":"V-component_of_WINDS"},"data":[0,0,0,3.6238,3.6239,3.6289,3.6289,3.6339,3.6339,0,0,0,0,0,0,0,0,0,0,0,3.6215,3.6215,3.6238,3.6239,3.6289,3.6289,3.6338,3.6339,0,0,0,0,0,0,0,0,0,0,0,3.6215,3.6215,3.6215,3.6239,3.6289,3.6289,3.6338,3.6305,0,0,0,0,0,0,0,0,0,0,3.6259,3.6231,3.6215,3.6215,3.6239,3.6289,3.6289,3.6304,3.6307,3.631,0,3.6311,0,3.6326,3.6341,3.6341,0,0,0,3.6244,3.6228,3.6249,3.6215,3.6239,3.6289,3.6268,3.6306,3.631,3.6314,3.6312,3.6314,3.6327,3.6342,3.6342,3.6342,3.6342,0,0,3.6241,3.6219,3.6246,3.6251,3.6244,3.6266,3.6269,3.6309,3.6304,3.6312,3.6316,3.6328,3.6342,3.6342,3.6343,3.6342,0,0,0,3.623,3.6217,3.6237,3.6249,3.6259,3.6267,3.6271,3.6302,3.6311,3.6316,3.6328,3.6342,3.6342,3.6343,3.6343,3.631,0,0,0,3.6228,3.6211,3.6236,3.6223,3.6258,3.6282,3.6263,3.6308,3.6313,3.6328,3.6342,3.6343,3.6343,3.6343,3.6312,3.6298,0,0,0,3.6214,3.6209,3.6214,3.6222,3.6243,3.6281,3.6292,3.631,3.632,3.6341,3.6343,3.6344,3.6343,3.6313,3.63,3.6292,0,0,0,3.6193,3.6183,3.6213,3.6207,3.6243,3.6262,3.6292,3.6307,3.6322,3.6342,3.6343,3.6343,3.6314,3.6301,3.6293,3.628,3.6273,0,0,3.6169,3.618,3.6178,3.6206,3.6215,3.6256,3.6259,3.6292,3.6313,3.6331,3.6331,3.6311,3.63,3.6292,3.6243,3.6237,0,0,0,3.6163,3.6161,3.6168,3.6182,3.6208,3.6229,3.6264,3.6277,3.6294,3.6318,3.6307,3.6301,3.6297,3.6292,3.6287,3.6285,3.634,3.634,3.634,3.6096,3.6126,3.6125,3.616,3.6173,3.621,3.6223,3.6246,3.627,3.6267,3.6272,3.6239,3.6232,3.6228,3.6225,3.6268,3.6268,3.6268,3.6268,3.6063,3.6065,3.61,3.6111,3.6142,3.6151,3.6187,3.6204,3.6216,3.6237,3.6235,3.6254,3.6221,3.622,3.6266,3.6266,3.6266,3.6267,3.6267,3.6021,3.6028,3.6044,3.6069,3.6083,3.612,3.6131,3.6158,3.6183,3.6181,3.6189,3.619,3.6193,3.6184,3.6184,3.6184,3.6183,3.6183,3.6183,3.5971,3.5992,3.5998,3.6027,3.604,3.6061,3.6099,3.6112,3.6133,3.6152,3.6152,3.6176,3.6213,3.6221,3.6182,3.6182,3.6182,3.6182,3.6182,3.5924,3.594,3.595,3.5964,3.6,3.6013,3.6049,3.6073,3.6088,3.6093,3.6118,3.6141,3.6154,3.6158,3.6164,3.6112,3.6112,3.6112,3.6112,3.5888,3.5899,3.5916,3.5936,3.5958,3.5992,3.6002,3.6032,3.6065,3.6076,3.6088,3.6099,3.6102,3.6113,3.6118,3.6125,3.6064,3.6064,3.6064,3.5861,3.5875,3.5878,3.5913,3.5944,3.5969,3.5979,3.5999,3.604,3.6062,3.6085,3.6087,3.6106,3.6111,3.6132,3.6139,3.6152,0,0]}]]